TimePST,TemperatureF,Dew PointF,Humidity,Sea Level PressureIn,VisibilityMPH,Wind Direction,Wind SpeedMPH,Gust SpeedMPH,PrecipitationIn,Events,Conditions,WindDirDegrees,DateUTC
12:53 AM,28.0,27.0,96,30.41,10.0,NW,3.5,-,N/A,,Clear,310,2013-02-14 08:53:00
1:53 AM,27.0,25.0,92,30.41,10.0,Calm,Calm,-,N/A,,Clear,0,2013-02-14 09:53:00
2:53 AM,28.9,27.0,92,30.41,10.0,NNW,5.8,-,N/A,,Clear,330,2013-02-14 10:53:00
3:53 AM,28.0,26.1,92,30.41,10.0,Calm,Calm,-,N/A,,Clear,0,2013-02-14 11:53:00
4:53 AM,27.0,25.0,92,30.44,10.0,NNW,3.5,-,N/A,,Clear,340,2013-02-14 12:53:00
5:53 AM,27.0,25.0,92,30.46,10.0,NNW,3.5,-,N/A,,Clear,330,2013-02-14 13:53:00
6:00 AM,28.4,24.8,86,30.42,10.0,Calm,Calm,-,N/A,,Partly Cloudy,0,2013-02-14 14:00:00
6:53 AM,26.1,24.1,92,30.48,10.0,Calm,Calm,-,N/A,,Partly Cloudy,0,2013-02-14 14:53:00
7:53 AM,27.0,25.0,92,30.50,10.0,Calm,Calm,-,N/A,,Partly Cloudy,0,2013-02-14 15:53:00
8:53 AM,34.0,30.0,85,30.50,10.0,North,3.5,-,N/A,,Partly Cloudy,360,2013-02-14 16:53:00
9:53 AM,39.0,30.9,73,30.50,10.0,NNE,4.6,-,N/A,,Partly Cloudy,20,2013-02-14 17:53:00
10:53 AM,41.0,32.0,70,30.51,10.0,SW,3.5,-,N/A,,Partly Cloudy,220,2013-02-14 18:53:00
11:53 AM,43.0,32.0,65,30.50,10.0,SW,3.5,-,N/A,,Partly Cloudy,220,2013-02-14 19:53:00
12:53 PM,46.9,33.1,59,30.47,10.0,NW,5.8,-,N/A,,Partly Cloudy,310,2013-02-14 20:53:00
1:53 PM,48.0,33.1,56,30.45,10.0,Calm,Calm,-,N/A,,Partly Cloudy,0,2013-02-14 21:53:00
2:53 PM,52.0,32.0,47,30.42,10.0,NE,9.2,-,N/A,,Partly Cloudy,50,2013-02-14 22:53:00
3:53 PM,52.0,28.9,41,30.42,10.0,East,4.6,-,N/A,,Partly Cloudy,80,2013-02-14 23:53:00
4:53 PM,48.0,32.0,54,30.43,10.0,NNW,6.9,-,N/A,,Partly Cloudy,340,2013-02-15 00:53:00
5:53 PM,41.0,30.0,65,30.45,10.0,West,5.8,-,N/A,,Partly Cloudy,280,2013-02-15 01:53:00
6:53 PM,35.1,30.0,82,30.48,10.0,South,4.6,-,N/A,,Clear,180,2013-02-15 02:53:00
7:53 PM,33.1,28.0,82,30.48,10.0,ENE,3.5,-,N/A,,Clear,70,2013-02-15 03:53:00
8:53 PM,33.1,28.0,82,30.46,10.0,NE,3.5,-,N/A,,Clear,40,2013-02-15 04:53:00
9:53 PM,30.9,26.1,82,30.47,10.0,Calm,Calm,-,N/A,,Clear,0,2013-02-15 05:53:00
10:53 PM,30.9,27.0,85,30.47,10.0,NNW,3.5,-,N/A,,Clear,330,2013-02-15 06:53:00
11:53 PM,30.0,26.1,85,30.47,10.0,Calm,Calm,-,N/A,,Clear,0,2013-02-15 07:53:00